User: anonymous   Login
Location: Unspecified
(0.0000°N, 0.0000°E)
Time: 10:09:20
(UTC+02:00)
Language:

ARIANE DEB (SPELDA) - Orbit

View from above orbital plane
View from above orbital plane
View from above satellite
View from above satellite

Ground track
Ground track

The orbit data is extracted from the following two-line orbital elements,

1 27402U 02015D   16181.50632936 +.00000747 +00000-0 +65885-3 0  9997
2 27402 003.5749 281.9088 7100002 005.1033 359.3323 02.48170073125315
Epoch (UTC): 29 June 2016 12:09:06
Eccentricity: 0.7100002
inclination: 3.5749°
perigee height: 305 km
apogee height: 33028 km
right ascension of ascending node: 281.9088°
argument of perigee: 5.1033°
revolutions per day: 2.48170073
mean anomaly at epoch: 359.3323°
orbit number at epoch: 12531

The dashed part of the orbit path shows where the satellite is in the earth's shadow,  

DLR